Flag for Brunei Past Weather in Bandar Seri Begawan, Brunei — Yesterday and Last 2 Weeks

Now
77 °F

Thunderstorms. Passing clouds.


Feels Like: 78 °F
Forecast: 78 / 87 °F
Wind: 3 mph from South

Location: Brunei Airport

Current Time: Jul 24, 2016 at 5:12:30 AM

Latest Report: Jul 24, 2016 at 4:30 AM


Visibility: N/A

Pressure: 29.80 "Hg

Humidity: 100%

Dew Point: 77 °F

Location of Bandar Seri BegawanLocation

Past Weather in Bandar Seri Begawan — Graph

°F

Bandar Seri Begawan Temperature Yesterday

Maximum temperature yesterday: 88 °F (at 1:30 PM)
Minimum temperature yesterday: 77 °F (at 12:00 AM)
Average temperature yesterday: 81 °F

High & Low Weather Summary for the Past Weeks

 TemperatureHumidityPressure
High95 °F (Jul 9, 2:30 PM)100% (Jul 10, 6:30 AM)29.92 "Hg (Jul 10, 6:30 AM)
Low75 °F (Jul 14, 7:30 PM)47% (Jul 13, 12:30 PM)29.71 "Hg (Jul 13, 4:00 PM)
Average83 °F85%29.82 "Hg
* Reported Jul 9 4:00 AM — Jul 24 4:00 AM, Bandar Seri Begawan, Weather by CustomWeather, © 2016

Note: Actual official high and low records may vary slightly from our data, if they occured in-between our weather recording intervals... More about our weather records

Advertising

Bandar Seri Begawan Weather History for the Previous 24 Hours

Scroll right to see more
 ConditionsComfort  
Time TempWeatherWind HumidityBarometerVisibility
4:00 AM
Sun, Jul 24
77 °FThunderstorms. Passing clouds.2 mph94%29.80 "HgN/A
3:30 AM77 °FPassing clouds.2 mph94%29.80 "HgN/A
3:00 AM77 °FPassing clouds.1 mph100%29.80 "HgN/A
2:30 AM77 °FPassing clouds.5 mph100%29.80 "Hg6 mi
2:00 AM77 °FLight rain. Passing clouds.3 mph100%29.83 "Hg6 mi
1:30 AM77 °FLight rain. Passing clouds.3 mph100%29.83 "Hg6 mi
1:00 AM77 °FLight rain. Passing clouds.3 mph100%29.83 "Hg6 mi
12:30 AM79 °FLight rain. Passing clouds.3 mph94%29.83 "Hg6 mi
12:00 AM77 °FThunderstorms. Passing clouds.3 mph100%29.83 "Hg6 mi
11:30 PM
Sat, Jul 23
79 °FThunderstorms. Partly cloudy.3 mph94%29.86 "Hg5 mi
11:00 PM77 °FThunderstorms. Partly cloudy.6 mph100%29.83 "Hg4 mi
10:30 PM79 °FThunderstorms. Partly cloudy.1 mph94%29.86 "Hg3 mi
10:00 PM79 °FThunderstorms. Partly cloudy.3 mph94%29.86 "Hg5 mi
9:30 PM79 °FThunderstorms. Partly cloudy.5 mph94%29.83 "Hg3 mi
9:00 PM79 °FThunderstorms. Partly cloudy.5 mph94%29.83 "Hg6 mi
8:30 PM79 °FThunderstorms. Partly cloudy.5 mph100%29.80 "Hg6 mi
8:00 PM81 °FThunderstorms. Partly cloudy.5 mph94%29.80 "Hg6 mi
7:30 PM81 °FThunderstorms. Partly cloudy.5 mph94%29.80 "HgN/A
7:00 PM82 °FThunderstorms. Partly cloudy.5 mph89%29.80 "Hg5 mi
6:30 PM82 °FThunderstorms. Broken clouds.3 mph84%29.77 "Hg5 mi
6:00 PM84 °FThunderstorms. Broken clouds.5 mph79%29.77 "Hg5 mi
5:30 PM84 °FThunderstorms. Broken clouds.9 mph79%29.77 "HgN/A
5:00 PM84 °FThunderstorms. Broken clouds.8 mph79%29.77 "HgN/A
4:30 PM84 °FThunderstorms. Broken clouds.8 mph84%29.74 "HgN/A
4:00 PM84 °FBroken clouds.9 mph84%29.77 "HgN/A
3:30 PM84 °FBroken clouds.10 mph79%29.74 "HgN/A
3:00 PM86 °FBroken clouds.9 mph75%29.77 "HgN/A
2:30 PM88 °FPartly sunny.8 mph70%29.77 "HgN/A
2:00 PM88 °FPartly sunny.7 mph75%29.80 "HgN/A
1:30 PM88 °FBroken clouds.6 mph75%29.80 "Hg6 mi
1:00 PM84 °FSprinkles. Partly sunny.7 mph84%29.83 "Hg4 mi
12:30 PM82 °FSprinkles. Broken clouds.7 mph89%29.83 "Hg3 mi
12:00 PM84 °FBroken clouds.6 mph79%29.83 "Hg6 mi
11:30 AM86 °FBroken clouds.3 mph75%29.86 "HgN/A
11:00 AM86 °FBroken clouds.2 mph75%29.86 "HgN/A
10:30 AM86 °FBroken clouds.2 mph75%29.86 "HgN/A
10:00 AM86 °FBroken clouds.3 mph75%29.86 "HgN/A
9:30 AM86 °FBroken clouds.2 mph79%29.86 "HgN/A
9:00 AM84 °FPartly sunny.3 mph79%29.86 "HgN/A
8:30 AM82 °FPartly sunny.3 mph84%29.83 "HgN/A
8:00 AM81 °FPartly sunny.2 mph89%29.83 "HgN/A
7:30 AM79 °FPartly sunny.3 mph94%29.83 "HgN/A
7:00 AM77 °FPartly sunny.1 mph100%29.83 "HgN/A
6:30 AM77 °FBroken clouds.2 mph100%29.83 "HgN/A
6:00 AM77 °FPartly cloudy.3 mph100%29.83 "HgN/A
5:30 AM77 °FPassing clouds.2 mph100%29.83 "HgN/A
5:00 AM77 °FPassing clouds.2 mph100%29.83 "HgN/A
Weather by CustomWeather, © 2016

See weather overviewHow to use our weather pages